Location: F?ge?el
(45.8833°N, 22.5833°E)
Time: 13:39:55
(UTC+00:00)

Meteor 2-3 Rocket - Pass Details

Date: 17 November 2025
Orbit: 841 x 884 km, 81.2° (Epoch: 06 December)

Event Time Altitude Azimuth Distance (km) Brightness Sun altitude
Rises 16:56:07 0° 352° (N) 3,465 6.9 -20.7°
Reaches altitude 10° 16:58:38 10° 356° (N) 2,517 6.1 -21.2°
Maximum altitude 17:04:16 58° 76° (ENE) 996 3.7 -22.1°
Enters shadow 17:07:28 25° 146° (SE) 1,651 4.9 -22.7°
